Regional Weather Roundup
Issued by NWS

Home | Current Version | Previous Version | Graphics & Text | Print | Product List | Glossary On
Versions: 1 2 3 4 5 6 7 8 9 10 11 12 13 14 15 16 17 18 19 20 21 22 23 24 25 26 27 28 29 30 31 32 33 34 35 36 37 38 39 40 41 42 43 44 45 46 47 48 49 50
000
ASUS43 KTOP 280008
RWRKS

WEATHER ROUNDUP FOR KANSAS
NATIONAL WEATHER SERVICE GOODLAND KS
600 PM CST SAT DEC 27 2014

NOTE:  "FAIR" INDICATES FEW OR NO CLOUDS BELOW 12,000 FEET WITH NO
SIGNIFICANT WEATHER AND/OR OBSTRUCTIONS TO VISIBILITY.

KSZ001>006-013>018-027>032-041>047-280100-
NORTHWEST KANSAS

CITY           SKY/WX    TMP DP  RH WIND       PRES   REMARKS
GOODLAND       CLEAR     18  11  74 SW7       30.17S
6HR MIN TEMP:  16; 6HR MAX TEMP:  28;

HAYS           CLEAR     25  10  54 W5        30.25S
HILL CITY      CLEAR     22  14  71 CALM      30.24S
6HR MIN TEMP:  21; 6HR MAX TEMP:  28;

RUSSELL        CLEAR     25  17  72 NW3       30.24F
6HR MIN TEMP:  23; 6HR MAX TEMP:  31;

$$

KSZ061>065-074>080-084>089-280100-
SOUTHWEST KANSAS

CITY           SKY/WX    TMP DP  RH WIND       PRES   REMARKS
DODGE CITY     CLEAR     26  15  63 W6        30.24S
6HR MIN TEMP:  26; 6HR MAX TEMP:  34;

ELKHART          N/A     30  14  51 CALM        N/A
GARDEN CITY    CLEAR     25  16  68 W5        30.21F
6HR MIN TEMP:  24; 6HR MAX TEMP:  32;

GREAT BEND     CLEAR     27  16  63 NW6       30.27S
LIBERAL        CLEAR     30  16  55 CALM      30.25F
PRATT          CLEAR     27  19  74 N6        30.27R
$$

KSZ066>073-081>083-090>101-280100-
SOUTHEAST KANSAS

CITY           SKY/WX    TMP DP  RH WIND       PRES   REMARKS
CHANUTE        CLEAR     31  20  63 NW6       30.27R
6HR MIN TEMP:  31; 6HR MAX TEMP:  36;

COFFEYVILLE    CLEAR     32  20  61 N5        30.28R
6HR MIN TEMP:  31; 6HR MAX TEMP:  36; 6HR PCP: TRACE;

HUTCHINSON     PTCLDY    28  15  58 CALM      30.27S
6HR MIN TEMP:  27; 6HR MAX TEMP:  35;

MEDICINE LODGE   N/A     31  17  56 N3        30.27S
NEWTON         CLEAR     27  14  59 NW5       30.28S
PARSONS        CLEAR     28  20  71 NW3       30.28R
6HR MIN TEMP:  28; 6HR MAX TEMP:  37;

WICHITA INTL   CLEAR     30  17  58 NW8       30.27F
6HR MIN TEMP:  30; 6HR MAX TEMP:  37; 6HR PCP: TRACE;

WICHITA JABRA  CLEAR     27  17  66 NW8       30.27F
6HR MIN TEMP:  27; 6HR MAX TEMP:  35;

WICHITA MCCONL CLEAR     29  17  61 N9        30.27F
WINFIELD       PTCLDY    27  20  75 NW6       30.28S
6HR MIN TEMP:  27; 6HR MAX TEMP:  37;

$$

KSZ007>012-019>026-033>040-048>060-102>105-280100-
NORTHEAST KANSAS

CITY           SKY/WX    TMP DP  RH WIND       PRES   REMARKS
CONCORDIA      CLEAR     25  16  68 W5        30.26S
6HR MIN TEMP:  24; 6HR MAX TEMP:  31;

EMPORIA        CLEAR     27  18  69 NW6       30.27R
6HR MIN TEMP:  26; 6HR MAX TEMP:  34;

LAWRENCE       CLEAR     25  18  74 NW7       30.27S
6HR MIN TEMP:  24; 6HR MAX TEMP:  35;

MANHATTAN      CLEAR     27  18  69 W3        30.28S
6HR MIN TEMP:  26; 6HR MAX TEMP:  33;

MARYSVILLE     CLEAR     27  19  74 NW3       30.26R
OLATHE IND     CLEAR     28  19  69 NW7       30.25S
6HR MIN TEMP:  27; 6HR MAX TEMP:  33;

OLATHE EXE     CLEAR     29  19  66 NW5       30.24R
6HR MIN TEMP:  29; 6HR MAX TEMP:  33;

SALINA         CLEAR     28  16  60 NW5       30.29S
6HR MIN TEMP:  27; 6HR MAX TEMP:  34;

TOPEKA BILLARD CLEAR     30  18  60 NW8       30.28S
6HR MIN TEMP:  29; 6HR MAX TEMP:  37;

TOPEKA FORBES  CLEAR     27  17  66 NW7       30.26R
6HR MIN TEMP:  27; 6HR MAX TEMP:  36;

$$


USA.gov is the U.S. government's official web portal to all federal, state and local government web resources and services.